Temp
2 2 2 1 1 1 1 1 1 1 1 1 1 0 -0 -1 -2 -3 -4 -4 -5 -6
2 2 1 1 1 1 1 0 0 0 -0 0 0 -1 -2 -3 -4 -4 -5 -5 -6 -6
2 1 1 1 0 -0 -0 -0 -1 -1 -1 -1 -1 -2 -3 -4 -4 -5 -5 -6 -7 -7
1 1 1 0 -1 -1 -1 -2 -2 -2 -3 -3 -3 -3 -4 -5 -5 -5 -6 -6 -7 -7
1 1 0 -1 -1 -2 -2 -2 -3 -3 -3 -4 -4 -5 -5 -5 -5 -6 -6 -6 -6 -7
1 0 -0 -1 -2 -2 -2 -3 -3 -4 -4 -5 -6 -6 -5 -6 -5 -6 -6 -6 -6 -6
0 0 -1 -1 -2 -2 -3 -3 -4 -4 -5 -5 -6 -6 -6 -5 -5 -6 -6 -6 -6 -6
0 0 -1 -1 -2 -2 -3 -3 -4 -4 -5 -5 -7 -7 -5 -5 -5 -6 -7 -7 -6 -6
1 0 -1 -1 -2 -2 -3 -3 -4 -4 -5 -6 -7 -6 -5 -5 -6 -7 -7 -7 -6 -6
1 -0 -1 -1 -2 -3 -3 -4 -4 -5 -6 -6 -7 -6 -5 -5 -6 -7 -7 -7 -6 -6
0 -0 -1 -1 -2 -3 -4 -4 -5 -5 -6 -6 -7 -6 -5 -6 -7 -7 -7 -7 -7 -7
-0 -1 -1 -2 -3 -3 -4 -5 -6 -6 -6 -6 -7 -6 -6 -6 -7 -7 -7 -7 -7 -7
-0 -1 -2 -3 -3 -4 -5 -6 -6 -6 -6 -6 -7 -7 -6 -6 -7 -7 -8 -8 -8 -7
-1 -1 -2 -3 -4 -4 -5 -6 -6 -6 -6 -7 -7 -7 -6 -6 -7 -7 -8 -8 -8 -8
Height
875 872 869 865 860 855 850 845 840 836 832 827 823 818 814 811 808 806 803 799 795 791
876 873 869 865 860 854 850 844 839 834 829 824 819 814 810 808 806 802 797 793 789 785
876 873 869 864 858 853 848 842 837 831 826 821 817 812 809 805 802 797 792 788 784 780
877 873 869 863 858 852 846 841 835 830 825 820 815 811 807 803 798 793 787 783 779 775
877 873 868 862 857 851 845 839 834 829 824 818 813 808 804 800 794 789 783 779 775 771
877 873 868 863 858 852 845 839 834 828 823 818 812 807 803 797 791 785 780 775 771 767
878 874 869 864 859 853 846 839 834 828 823 818 811 806 801 794 787 782 776 772 767 763
878 875 870 865 859 853 847 840 835 828 823 817 810 806 800 792 785 779 773 768 764 760
879 875 870 865 860 853 847 841 835 828 823 816 811 806 799 792 784 777 771 765 760 756
879 875 871 866 860 854 847 841 835 829 823 817 811 806 798 791 783 776 770 764 758 753
880 876 871 866 861 855 848 842 836 830 824 818 813 807 799 790 781 774 768 761 756 750
881 877 872 867 862 856 849 843 837 832 827 820 814 807 799 789 781 774 766 759 754 748
883 878 873 869 864 858 851 845 840 834 829 824 816 809 800 791 782 774 766 759 752 746
884 880 875 871 866 859 852 846 842 837 831 826 819 811 803 794 785 777 768 760 752 745
Wind_Speed
15 17 19 21 23 24 25 27 27 26 25 23 22 23 22 19 18 17 24 28 29 25
15 17 21 23 24 24 25 25 26 24 23 23 24 22 18 15 21 26 29 27 26 25
15 18 21 24 25 25 25 25 25 25 24 23 21 18 18 23 28 27 28 24 24 24
17 19 23 26 26 27 26 24 25 24 23 24 23 21 23 26 26 28 26 25 21 21
16 21 26 28 26 27 27 25 24 23 24 26 28 25 20 28 29 28 26 26 26 22
16 21 26 27 26 29 30 27 24 25 26 28 28 21 23 26 31 28 26 23 24 24
15 20 24 25 26 29 32 27 26 27 27 28 28 22 26 32 30 27 26 24 23 23
15 19 23 25 27 29 34 27 26 27 29 30 26 22 31 33 28 27 22 23 23 22
16 20 22 25 29 30 34 28 28 29 31 32 30 27 32 33 30 25 22 25 24 25
17 21 22 26 28 30 33 29 29 30 33 33 30 31 35 35 31 24 24 25 24 24
17 21 25 26 27 32 31 29 30 31 32 32 29 32 37 34 31 26 26 24 23 25
19 22 24 25 26 32 30 29 30 28 30 30 32 34 38 36 31 28 29 25 23 24
19 21 23 24 25 30 29 29 27 28 29 28 32 35 39 38 33 32 30 26 26 26
19 21 22 21 26 31 32 29 27 27 28 30 33 36 40 39 37 34 30 26 29 31
Wind_Direction
4 2 357 351 346 341 339 338 338 336 333 331 331 326 318 311 318 321 317 315 315 308
3 359 354 351 346 343 341 341 340 339 340 337 331 329 330 334 330 327 328 326 320 313
6 1 358 352 349 347 343 343 345 345 345 345 344 341 339 335 336 334 328 319 314 314
7 4 359 357 352 347 346 348 348 349 349 346 342 332 333 339 335 328 321 319 317 312
6 5 3 0 1 360 356 353 352 350 349 348 345 341 331 334 331 323 321 319 321 314
8 6 5 5 6 5 1 356 357 357 357 356 353 353 345 331 327 328 324 317 319 319
2 4 4 4 5 4 2 358 357 358 0 360 356 351 338 333 332 331 326 328 323 323
355 359 0 3 1 0 1 1 359 359 2 2 357 347 341 341 341 333 328 328 329 325
357 357 357 359 359 359 360 0 1 4 4 2 355 348 348 348 345 339 334 329 331 335
0 357 357 357 359 1 360 0 3 7 3 357 357 353 353 351 348 340 334 330 331 331
358 356 357 359 2 1 2 4 6 2 358 355 355 357 355 353 349 344 338 335 331 336
360 355 358 2 4 3 3 8 4 356 356 358 357 0 359 357 353 346 341 338 337 340
4 3 5 5 7 5 9 8 360 358 0 2 359 1 0 360 356 351 346 342 341 345
8 8 7 10 11 11 11 6 2 1 3 4 3 0 1 2 360 355 347 344 343 344